• In Uzbekistan
  • List of Countries
  • For 7 days
  • Water Temperature
  • Satellite Maps
  • Weather Map
  • Weather Widgets
  • user-avatar
    Login

    Hourly Weather Canillo

    Today, 27 June, Tuesday

    Time Temperature Precipitation Wind Pressure Humidity
    00:00 +8°C° 0 mm 0 mps 616 mmHg 86%
    01:00 +9°C° 0 mm 1 mps 616 mmHg 85%
    02:00 +9°C° 0 mm 1 mps 616 mmHg 84%
    03:00 +8°C° 0 mm 1 mps 615 mmHg 84%
    04:00 +10°C° 0 mm 1 mps 616 mmHg 79%
    05:00 +12°C° 0 mm 1 mps 617 mmHg 74%
    06:00 +14°C° 0 mm 1 mps 617 mmHg 70%
    07:00 +16°C° 0 mm 1 mps 618 mmHg 61%
    08:00 +18°C° 0 mm 2 mps 619 mmHg 52%
    09:00 +20°C° 0 mm 3 mps 620 mmHg 43%
    10:00 +21°C° 0 mm 3 mps 620 mmHg 39%
    11:00 +22°C° 0 mm 4 mps 620 mmHg 35%
    12:00 +25°C° 0 mm 4 mps 620 mmHg 32%
    13:00 +23°C° 0.2 mm 5 mps 619 mmHg 37%
    14:00 +22°C° 0.2 mm 5 mps 618 mmHg 42%
    15:00 +21°C° 0.2 mm 5 mps 618 mmHg 48%
    16:00 +20°C° 0.6 mm 4 mps 617 mmHg 53%
    17:00 +19°C° 0.6 mm 3 mps 616 mmHg 58%
    18:00 +18°C° 0.6 mm 3 mps 616 mmHg 63%
    19:00 +16°C° 0.5 mm 2 mps 615 mmHg 68%
    20:00 +13°C° 0.5 mm 2 mps 615 mmHg 72%
    21:00 +10°C° 0.5 mm 2 mps 614 mmHg 77%
    22:00 +10°C° 0.3 mm 2 mps 614 mmHg 80%
    23:00 +9°C° 0.3 mm 2 mps 614 mmHg 82%

    Tomorrow, 28 June, Wednesday

    Time Temperature Precipitation Wind Pressure Humidity
    00:00 +8°C° 0.3 mm 2 mps 614 mmHg 85%
    01:00 +9°C° 0 mm 1 mps 613 mmHg 87%
    02:00 +8°C° 0 mm 1 mps 613 mmHg 88%
    03:00 +8°C° 0 mm 1 mps 613 mmHg 90%
    04:00 +9°C° 0 mm 1 mps 613 mmHg 86%
    05:00 +10°C° 0 mm 1 mps 613 mmHg 82%
    06:00 +11°C° 0 mm 1 mps 614 mmHg 79%
    07:00 +12°C° 0.2 mm 2 mps 614 mmHg 75%
    08:00 +12°C° 0.2 mm 3 mps 614 mmHg 71%
    09:00 +12°C° 0.2 mm 3 mps 615 mmHg 67%
    10:00 +13°C° 0.4 mm 3 mps 615 mmHg 64%
    11:00 +14°C° 0.4 mm 4 mps 615 mmHg 61%
    12:00 +14°C° 0.4 mm 4 mps 615 mmHg 59%
    13:00 +14°C° 0.6 mm 4 mps 614 mmHg 59%
    14:00 +14°C° 0.6 mm 4 mps 614 mmHg 59%
    15:00 +14°C° 0.6 mm 4 mps 614 mmHg 59%
    16:00 +13°C° 0.9 mm 4 mps 614 mmHg 62%
    17:00 +12°C° 0.9 mm 3 mps 614 mmHg 66%
    18:00 +12°C° 0.9 mm 3 mps 613 mmHg 69%
    19:00 +10°C° 0.5 mm 3 mps 613 mmHg 74%
    20:00 +9°C° 0.5 mm 2 mps 613 mmHg 78%
    21:00 +7°C° 0.5 mm 2 mps 613 mmHg 83%
    22:00 +7°C° 0.1 mm 2 mps 613 mmHg 85%
    23:00 +6°C° 0.1 mm 2 mps 613 mmHg 87%

    Day after tomorrow, 29 June, Thursday

    Time Temperature Precipitation Wind Pressure Humidity
    00:00 +5°C° 0.1 mm 2 mps 613 mmHg 89%
    01:00 +5°C° 0 mm 2 mps 612 mmHg 90%
    02:00 +4°C° 0 mm 2 mps 612 mmHg 90%
    03:00 +4°C° 0 mm 2 mps 612 mmHg 91%
    04:00 +5°C° 0 mm 2 mps 613 mmHg 88%
    05:00 +5°C° 0 mm 2 mps 613 mmHg 85%
    06:00 +6°C° 0 mm 2 mps 614 mmHg 82%
    07:00 +8°C° 0 mm 2 mps 615 mmHg 74%
    08:00 +9°C° 0 mm 2 mps 615 mmHg 65%
    09:00 +12°C° 0 mm 2 mps 616 mmHg 57%
    10:00 +12°C° 0.1 mm 2 mps 616 mmHg 55%
    11:00 +12°C° 0.1 mm 3 mps 617 mmHg 53%
    12:00 +12°C° 0.1 mm 3 mps 617 mmHg 51%
    13:00 +12°C° 0.3 mm 4 mps 617 mmHg 50%
    14:00 +13°C° 0.3 mm 4 mps 617 mmHg 49%
    15:00 +13°C° 0.3 mm 4 mps 617 mmHg 48%
    16:00 +12°C° 0.4 mm 3 mps 617 mmHg 52%
    17:00 +11°C° 0.4 mm 3 mps 616 mmHg 56%
    18:00 +10°C° 0.4 mm 2 mps 616 mmHg 60%
    19:00 +8°C° 0.1 mm 2 mps 616 mmHg 68%
    20:00 +7°C° 0.1 mm 1 mps 615 mmHg 76%
    21:00 +5°C° 0.1 mm 1 mps 615 mmHg 84%
    22:00 +4°C° 0 mm 1 mps 615 mmHg 85%
    23:00 +4°C° 0 mm 1 mps 614 mmHg 85%

    30 June, Friday

    Time Temperature Precipitation Wind Pressure Humidity
    00:00 +3°C° 0 mm 1 mps 614 mmHg 85%
    01:00 +3°C° 0 mm 1 mps 614 mmHg 85%
    02:00 +2°C° 0 mm 1 mps 614 mmHg 84%
    03:00 +2°C° 0 mm 1 mps 613 mmHg 84%
    04:00 +3°C° 0 mm 1 mps 614 mmHg 78%
    05:00 +5°C° 0 mm 1 mps 615 mmHg 72%
    06:00 +7°C° 0 mm 1 mps 616 mmHg 66%
    07:00 +8°C° 0 mm 2 mps 617 mmHg 58%
    08:00 +9°C° 0 mm 3 mps 618 mmHg 50%
    09:00 +11°C° 0 mm 3 mps 619 mmHg 42%
    10:00 +13°C° 0 mm 4 mps 619 mmHg 38%
    11:00 +14°C° 0 mm 4 mps 619 mmHg 34%
    12:00 +15°C° 0 mm 4 mps 620 mmHg 31%
    13:00 +15°C° 0.1 mm 4 mps 620 mmHg 34%
    14:00 +14°C° 0.1 mm 3 mps 619 mmHg 38%
    15:00 +14°C° 0.1 mm 3 mps 619 mmHg 42%
    16:00 +14°C° 0.2 mm 2 mps 619 mmHg 49%
    17:00 +13°C° 0.2 mm 2 mps 619 mmHg 56%
    18:00 +12°C° 0.2 mm 2 mps 618 mmHg 63%
    19:00 +9°C° 0.1 mm 2 mps 618 mmHg 71%
    20:00 +7°C° 0.1 mm 2 mps 618 mmHg 79%
    21:00 +6°C° 0.1 mm 2 mps 618 mmHg 86%
    22:00 +5°C° 0.1 mm 2 mps 618 mmHg 86%
    23:00 +5°C° 0.1 mm 2 mps 618 mmHg 86%

    1 July, Saturday

    Time Temperature Precipitation Wind Pressure Humidity
    00:00 +5°C° 0.1 mm 2 mps 618 mmHg 85%
    01:00 +5°C° 0 mm 2 mps 618 mmHg 86%
    02:00 +4°C° 0 mm 2 mps 617 mmHg 87%
    03:00 +4°C° 0 mm 2 mps 617 mmHg 88%
    04:00 +5°C° 0 mm 2 mps 618 mmHg 86%
    05:00 +6°C° 0 mm 2 mps 619 mmHg 83%
    06:00 +5°C° 0 mm 3 mps 620 mmHg 80%
    07:00 +8°C° 0 mm 3 mps 620 mmHg 74%
    08:00 +9°C° 0 mm 3 mps 621 mmHg 68%
    09:00 +10°C° 0 mm 3 mps 622 mmHg 62%
    10:00 +11°C° 0.1 mm 3 mps 623 mmHg 58%
    11:00 +12°C° 0.1 mm 3 mps 623 mmHg 55%
    12:00 +13°C° 0.1 mm 4 mps 623 mmHg 51%
    13:00 +13°C° 0.1 mm 4 mps 624 mmHg 51%
    14:00 +13°C° 0.1 mm 4 mps 624 mmHg 50%
    15:00 +13°C° 0.1 mm 4 mps 624 mmHg 49%
    16:00 +12°C° 0.1 mm 4 mps 624 mmHg 54%
    17:00 +12°C° 0.1 mm 4 mps 623 mmHg 59%
    18:00 +11°C° 0.1 mm 3 mps 623 mmHg 64%
    19:00 +9°C° 0.1 mm 3 mps 623 mmHg 71%
    20:00 +7°C° 0.1 mm 3 mps 623 mmHg 78%
    21:00 +4°C° 0.1 mm 3 mps 623 mmHg 86%
    22:00 +4°C° 0 mm 3 mps 623 mmHg 86%
    23:00 +4°C° 0 mm 3 mps 623 mmHg 86%

    2 July, Sunday

    Time Temperature Precipitation Wind Pressure Humidity
    00:00 +3°C° 0 mm 3 mps 623 mmHg 86%
    01:00 +3°C° 0 mm 3 mps 622 mmHg 86%
    02:00 +3°C° 0 mm 3 mps 622 mmHg 86%
    03:00 +2°C° 0 mm 3 mps 622 mmHg 85%
    04:00 +3°C° 0 mm 3 mps 623 mmHg 79%
    05:00 +4°C° 0 mm 3 mps 623 mmHg 72%
    06:00 +5°C° 0 mm 3 mps 624 mmHg 66%
    07:00 +9°C° 0 mm 3 mps 625 mmHg 59%
    08:00 +11°C° 0 mm 3 mps 626 mmHg 52%
    09:00 +13°C° 0 mm 3 mps 627 mmHg 45%
    10:00 +16°C° 0 mm 3 mps 627 mmHg 43%
    11:00 +17°C° 0 mm 3 mps 627 mmHg 41%
    12:00 +18°C° 0 mm 3 mps 628 mmHg 38%
    13:00 +19°C° 0 mm 3 mps 627 mmHg 39%
    14:00 +19°C° 0 mm 3 mps 627 mmHg 40%
    15:00 +20°C° 0 mm 3 mps 627 mmHg 41%
    16:00 +19°C° 0 mm 3 mps 627 mmHg 47%
    17:00 +18°C° 0 mm 3 mps 626 mmHg 52%
    18:00 +16°C° 0 mm 3 mps 626 mmHg 58%
    19:00 +14°C° 0 mm 2 mps 625 mmHg 69%
    20:00 +12°C° 0 mm 2 mps 625 mmHg 79%
    21:00 +8°C° 0 mm 2 mps 624 mmHg 89%
    22:00 +8°C° 0 mm 2 mps 624 mmHg 89%
    23:00 +8°C° 0 mm 2 mps 624 mmHg 89%
    Show more